User: anonymous   Login
Location: Three Oaks Observatory
(31.1535°N, 83.5955°W)
Time: 14:24:45
(UTC-05:00)
Language:

Hubble Space Telescope - Orbit

View from above orbital plane
View from above orbital plane
View from above satellite
View from above satellite

Ground track
Ground track

The orbit data is extracted from the following two-line orbital elements,

1 20580U 90037B   18350.18082506  .00000410  00000-0  14059-4 0  9999
2 20580  28.4707 351.9330 0002436 302.0389 133.6760 15.09145033372985
Epoch (UTC): 16 December 2018 04:20:23
Eccentricity: 0.0002436
inclination: 28.4707°
perigee height: 537 km
apogee height: 540 km
right ascension of ascending node: 351.9330°
argument of perigee: 302.0389°
revolutions per day: 15.09145033
mean anomaly at epoch: 133.6760°
orbit number at epoch: 37298

The dashed part of the orbit path shows where the satellite is in the earth's shadow,  

DLR